Hamburg Airport

Airport
ICAO code: 
EDDH
IATA Code: 
HAM
Summary
ICAO Region: 
EUR
Territory: 
Location: 
Fuhlsbuettel,
Serving: 
Hamburg
Elevation: 
53 ft
Coordinates: 
Aerial View: 
53° 37' 48" N, 9° 59' 18" E
Metar
Observation
EDDH 201050Z AUTO VRB04KT 9999 FEW029 18/10 Q1019 NOSIG
Station
Hamburg-Fuhlsbuettel
Date/Time
2022-05-20 10:50:00
Wind speed
04 kts
Lowest cloud amount
few clouds
Temperature
18°C
Dew point
10°C
Humidity
59%
QNH
1019 hPa
Weather condition
n/a

Description

International airport serving Hamburg, Germany.

Climatology

Temperate Marine climate/Oceanic climate (Köppen climate classification Cfb) - Moderately cool summer and comparatively warm winter.

Runways

Designator Length Width Surface Rops
5/23 3250 46 ASP Yes/Yes
15/33 3666 46 ASP Yes/Yes
Airport map: 
Aerial View: 

Accidents and Serious Incidents at or in the vicinity of EDDH

SKYbrary Partners:

Safety knowledge contributed by: